This demonstration page uses our WeatherBlox Daily Observations layout. Learn more.

Left ArrowRight Arrow

41.86663, -103.66717

Hourly Observations for November 20, 2019

Temp ( °F °C ) Dew Point ( °F °C ) Humidity (%) Winds ( mph kmh ) Pressure ( in mb ) Visibility ( mi km ) Precip ( " mm )
12:53 am 00:53 Clear 39 3.9 32 0 76 76 E 3 6 29.62 1003 10 16 0.00 0.00
1:53 am 01:53 Clear 35 1.7 30 -1.1 82 82 SE 5 7 29.62 1003 10 16 0.00 0.00
2:53 am 02:53 Clear 38 3.3 33 0.6 83 83 ESE 5 7 29.60 1003 10 16 0.00 0.00
3:53 am 03:53 Clear 36 2.2 32 0 86 86 NNW 8 13 29.63 1003 10 16 0.00 0.00
4:53 am 04:53 Clear 37 2.8 33 0.6 86 86 W 5 7 29.65 1004 10 16 0.00 0.00
5:53 am 05:53 Clear 38 3.3 33 0.6 83 83 WNW 8 13 29.67 1005 10 16 0.00 0.00
6:53 am 06:53 Sunny 38 3.3 33 0.6 83 83 W 6 9 29.72 1007 10 16 0.00 0.00
7:53 am 07:53 Sunny 41 5 34 1.1 76 76 NW 14 22 29.73 1007 10 16 0.00 0.00
8:53 am 08:53 Sunny 46 7.8 35 1.7 66 66 NNW 18 30 29.78 1008 10 16 0.00 0.00
9:53 am 09:53 Mostly Cloudy 46 7.8 34 1.1 63 63 NNW 15 24 29.80 1009 10 16 0.00 0.00
10:53 am 10:53 Cloudy 44 6.7 34 1.1 68 68 NW 18 30 29.80 1009 10 16 0.00 0.00
11:53 am 11:53 Mostly Cloudy 45 7.2 33 0.6 63 63 NW 20 31 29.79 1009 10 16 0.00 0.00
12:53 pm 12:53 Cloudy 45 7.2 32 0 61 61 NNW 16 26 29.78 1009 10 16 0.00 0.00
1:53 pm 13:53 Cloudy 44 6.7 31 -0.6 60 60 N 22 35 29.80 1009 10 16 0.00 0.00
2:20 pm 14:20 Cloudy 43 6.1 31 -0.6 63 63 N 16 26 29.80 1009 10 16 0.00 0.00
2:53 pm 14:53 Cloudy 41 5 30 -1.1 65 65 NNW 20 31 29.83 1010 10 16 0.00 0.00
3:53 pm 15:53 Cloudy 39 3.9 29 -1.7 67 67 NNW 20 31 29.87 1012 10 16 0.00 0.00
4:53 pm 16:53 Cloudy 37 2.8 28 -2.2 70 70 NNW 15 24 29.94 1014 10 16 0.00 0.00
5:53 pm 17:53 Cloudy 36 2.2 28 -2.2 73 73 NNW 18 30 29.99 1016 10 16 0.00 0.00
6:53 pm 18:53 Cloudy 35 1.7 27 -2.8 72 72 N 18 30 30.02 1017 10 16 0.00 0.00
7:53 pm 19:53 Cloudy 33 0.6 27 -2.8 78 78 N 16 26 30.05 1018 10 16 0.00 0.00
8:53 pm 20:53 Cloudy with Light Snow 32 0 27 -2.8 82 82 N 9 15 30.05 1018 4 6 0.00 0.00
9:49 pm 21:49 Cloudy 34 1 27 -3 75 75 N 9 15 30.14 1020 10 16 0.00 0.00
9:53 pm 21:53 Cloudy 33 0.6 27 -2.8 78 78 NNW 10 17 30.06 1018 10 16 0.00 0.00
10:11 pm 22:11 Cloudy with Light Wintry Mix 32 0 29 -1.7 88 88 NW 8 13 30.15 1021 9 14 0.00 0.00
10:53 pm 22:53 Cloudy with Light Snow 31 -0.6 27 -2.8 85 85 NNW 13 20 30.08 1019 8 13 0.01 0.25
11:53 pm 23:53 Cloudy 31 -0.6 27 -2.8 85 85 WNW 8 13 30.09 1019 10 16 0.00 0.00

Powered by AerisWeather